Zurück zum Katalog

STARLINK-1543

AktivKommunikationVLEO
NORAD 46053·PAYLOAD·🇺🇸 United States

Gestartet Aug 7, 2020 von Cape Canaveral Space Force Station

Loading…

Nächste Überflüge (nächste 24 Stunden)

TLE

AktuellSource: CelesTrak SupGP

Epoche: Sep 15, 2026, 01:07 UTC

1 46053C 20055AC  26258.04701389  .00041296  00000+0  13293-2 0  2584
2 46053  53.1596 312.7941 0001324  77.5543 109.4589 15.31649770    17

Verfolge STARLINK-1543 in Echtzeit mit AllMySat

Download on the App Store